EW3994 Weather Reports


time (UTC)temp
F
wind
direction
speed
knots
gust
knots
rain 1hr
in
rain 24hr
in
rain mn
in
humidity
%
barometer
mb
20260510043931 64 269 0.9 2.6 0.00 0.00 0.00 50 1028.0
20260510043031 64 293 0.0 2.6 0.00 0.00 0.00 51 1028.0
20260510042131 64 320 0.9 3.5 0.00 0.00 0.00 50 1028.0
20260510041231 64 307 2.6 5.2 0.00 0.00 0.00 47 1028.0
20260510040331 64 315 1.7 5.2 0.00 0.00 0.00 48 1028.0
20260510032731 67 352 0.9 7.0 0.00 0.00 0.00 44 1028.3
20260510031837 65 126 0.0 1.7 0.00 0.00 0.00 48 1028.4
20260510030030 63 25 0.9 3.5 0.00 0.00 0.00 49 1028.6
20260510024230 63 230 0.9 1.7 0.00 0.00 0.00 53 1028.9
20260510021530 63 15 0.9 3.5 0.00 0.00 0.00 49 1029.5
20260510020630 63 163 0.9 3.5 0.00 0.00 0.00 53 1029.5
20260510015731 63 36 0.9 2.6 0.00 0.00 0.00 53 1029.7
20260510014830 61 37 1.7 4.3 0.00 0.00 0.00 51 1029.7
20260510012131 61 78 0.9 3.5 0.00 0.00 0.00 52 1029.8
20260510011230 60 29 0.9 2.6 0.00 0.00 0.00 52 1029.8
20260510010330 60 60 0.9 3.5 0.00 0.00 0.00 52 1029.9
20260510005430 60 58 1.7 5.2 0.00 0.00 0.00 53 1029.9
20260510001830 60 111 3.5 7.8 0.00 0.00 0.00 56 1029.8
20260510000031 59 100 2.6 6.1 0.00 0.00 0.00 57 1029.9
20260509235130 58 93 1.7 4.3 0.00 0.00 0.00 59 1029.9
20260509234230 57 103 1.7 3.5 0.00 0.00 0.00 62 1030.0
20260509233330 56 90 0.9 3.5 0.00 0.00 0.00 65 1029.9
20260509232430 56 17 0.0 0.9 0.00 0.00 0.00 66 1029.9
20260509231530 54 0 0.0 0.0 0.00 0.00 0.00 66 1029.9
20260509230630 53 17 0.9 1.7 0.00 0.00 0.00 65 1029.8
20260509225730 53 17 0.9 1.7 0.00 0.00 0.00 65 1029.7
20260509224830 52 13 0.9 1.7 0.00 0.00 0.00 65 1029.8
20260509223930 52 350 0.9 1.7 0.00 0.00 0.00 65 1029.7
20260509222130 52 319 0.0 1.7 0.00 0.00 0.00 65 1029.4
20260509221230 52 355 0.0 0.9 0.00 0.00 0.00 65 1029.4
20260509220330 51 0 0.0 0.0 0.00 0.00 0.00 65 1029.2
20260509214530 51 30 0.9 1.7 0.00 0.00 0.00 65 1028.9
20260509212730 51 30 0.9 2.6 0.00 0.00 0.00 65 1028.9
20260509211830 51 30 0.9 1.7 0.00 0.00 0.00 65 1028.7
20260509210930 50 31 0.9 1.7 0.00 0.00 0.00 65 1028.7
20260509210029 50 77 0.9 2.6 0.00 0.00 0.00 65 1028.7
20260509205130 50 130 0.0 2.6 0.00 0.00 0.00 65 1028.6
20260509204230 50 129 0.0 1.7 0.00 0.00 0.00 65 1028.5
20260509203330 49 129 0.0 1.7 0.00 0.00 0.00 65 1028.4
20260509202429 49 0 0.0 0.0 0.00 0.00 0.00 65 1028.4
20260509201529 49 129 0.9 1.7 0.00 0.00 0.00 65 1028.2
20260509200629 49 130 0.9 1.7 0.00 0.00 0.00 65 1028.1
20260509195730 49 130 0.9 1.7 0.00 0.00 0.00 65 1028.1
20260509193930 49 129 0.9 1.7 0.00 0.00 0.00 64 1028.0
20260509193030 50 129 0.9 1.7 0.00 0.00 0.00 64 1027.9
20260509191230 50 129 0.0 1.7 0.00 0.00 0.00 64 1027.9
20260509190330 50 129 0.9 1.7 0.00 0.00 0.00 64 1027.8
20260509184529 50 129 0.9 1.7 0.00 0.00 0.00 64 1027.6
20260509181829 51 129 0.9 1.7 0.00 0.00 0.00 64 1027.6
20260509180929 51 129 0.0 1.7 0.00 0.00 0.00 64 1027.6
20260509175129 51 133 0.9 4.3 0.00 0.00 0.00 64 1027.5
20260509174229 51 129 0.9 1.7 0.00 0.00 0.00 64 1027.6
20260509173329 52 121 0.9 2.6 0.00 0.00 0.00 65 1027.6
20260509172430 52 127 0.9 2.6 0.00 0.00 0.00 64 1027.6
20260509171529 52 124 0.9 2.6 0.00 0.00 0.00 64 1027.6
20260509170630 52 131 1.7 3.5 0.00 0.00 0.00 64 1027.7
20260509164830 51 106 1.7 3.5 0.00 0.00 0.00 65 1027.7
20260509163029 51 111 1.7 5.2 0.00 0.00 0.00 64 1027.9
20260509162130 51 150 0.9 2.6 0.00 0.00 0.00 64 1027.9
20260509160330 51 150 0.0 1.7 0.00 0.00 0.00 64 1028.0
20260509155429 51 149 0.9 1.7 0.00 0.00 0.00 64 1028.1
20260509154529 51 150 0.0 0.9 0.00 0.00 0.00 64 1028.1
20260509153630 52 149 0.9 1.7 0.00 0.00 0.00 64 1028.0
20260509152729 52 150 0.9 1.7 0.00 0.00 0.00 64 1028.0
20260509151829 52 150 0.9 1.7 0.00 0.00 0.00 64 1028.1
20260509150029 51 151 0.9 2.6 0.00 0.00 0.00 64 1028.1
20260509145129 52 156 1.7 4.3 0.00 0.00 0.00 64 1028.1
20260509144229 51 188 0.9 1.7 0.00 0.00 0.00 64 1028.2
20260509143329 52 188 0.9 2.6 0.00 0.00 0.00 64 1028.2
20260509142429 52 131 1.7 2.6 0.00 0.00 0.00 64 1028.3
20260509141529 52 103 0.9 1.7 0.00 0.00 0.00 64 1028.4
20260509140629 52 103 0.9 1.7 0.00 0.00 0.00 64 1028.4
20260509135729 52 117 0.0 1.7 0.00 0.00 0.00 64 1028.3
20260509134829 52 134 0.9 1.7 0.00 0.00 0.00 63 1028.3
20260509133929 52 134 0.9 1.7 0.00 0.00 0.00 63 1028.3
20260509133029 53 134 0.9 1.7 0.00 0.00 0.00 63 1028.3
20260509132129 53 134 0.9 1.7 0.00 0.00 0.00 63 1028.3
20260509131228 53 134 0.9 1.7 0.00 0.00 0.00 64 1028.4
20260509130329 53 134 1.7 2.6 0.00 0.00 0.00 64 1028.5
20260509124529 53 130 1.7 2.6 0.00 0.00 0.00 63 1028.5
20260509123629 53 125 1.7 3.5 0.00 0.00 0.00 63 1028.5
20260509122728 53 142 2.6 5.2 0.00 0.00 0.00 63 1028.5
20260509121829 53 147 2.6 4.3 0.00 0.00 0.00 63 1028.5
20260509120929 54 148 2.6 4.3 0.00 0.00 0.00 63 1028.4
20260509120028 54 150 1.7 4.3 0.00 0.00 0.00 63 1028.3
20260509115129 54 152 1.7 3.5 0.00 0.00 0.00 63 1028.3
20260509113329 54 135 1.7 3.5 0.00 0.00 0.00 63 1028.2
20260509105729 55 134 1.7 2.6 0.00 0.00 0.00 63 1028.3
20260509104828 55 136 0.9 1.7 0.00 0.00 0.00 63 1028.3
20260509103929 56 121 0.0 1.7 0.00 0.00 0.00 63 1028.3
20260509103028 56 121 0.9 2.6 0.00 0.00 0.00 63 1028.2
20260509102128 56 134 2.6 4.3 0.00 0.00 0.00 63 1028.2
20260509101228 56 149 3.5 5.2 0.00 0.00 0.00 63 1028.3
20260509100328 56 152 3.5 7.0 0.00 0.00 0.00 63 1028.3
20260509095428 56 150 3.5 7.8 0.00 0.00 0.00 63 1028.3
20260509094528 57 184 0.9 3.5 0.00 0.00 0.00 63 1028.2
20260509093629 57 181 0.0 1.7 0.00 0.00 0.00 63 1028.2
20260509092728 57 0 0.0 0.0 0.00 0.00 0.00 63 1028.1
20260509091829 58 181 0.0 0.9 0.00 0.00 0.00 63 1028.1
20260509090928 58 181 0.0 0.9 0.00 0.00 0.00 63 1028.1
20260509084228 59 181 0.0 0.9 0.00 0.00 0.00 64 1028.0
20260509083328 59 181 0.9 1.7 0.00 0.00 0.00 64 1027.9
20260509082429 60 189 1.7 2.6 0.00 0.00 0.00 64 1027.7
20260509081528 60 197 1.7 2.6 0.00 0.00 0.00 64 1027.6
20260509080628 60 208 1.7 4.3 0.00 0.00 0.00 63 1027.5
20260509075728 60 207 2.6 5.2 0.00 0.00 0.00 63 1027.5
20260509074828 60 205 2.6 5.2 0.00 0.00 0.00 63 1027.6
20260509073929 60 217 2.6 6.1 0.00 0.00 0.00 63 1027.6
20260509073028 60 208 2.6 4.3 0.00 0.00 0.00 63 1027.6
20260509072128 61 217 3.5 7.0 0.00 0.00 0.00 62 1027.5
20260509071228 61 238 3.5 7.0 0.00 0.00 0.00 62 1027.4
20260509065428 61 234 3.5 7.0 0.00 0.00 0.00 62 1027.4
20260509063629 62 235 4.3 8.7 0.00 0.00 0.00 61 1027.4
20260509062728 62 230 5.2 10.4 0.00 0.00 0.00 60 1027.4
20260509061827 62 218 3.5 9.6 0.00 0.00 0.00 60 1027.5
20260509060928 62 222 3.5 7.8 0.00 0.00 0.00 60 1027.3
20260509060027 62 216 2.6 7.0 0.00 0.00 0.00 60 1027.4
20260509055127 63 212 4.3 7.8 0.00 0.00 0.00 59 1027.4
20260509053327 64 213 3.5 7.8 0.00 0.00 0.00 60 1027.5
20260509052428 63 241 5.2 9.6 0.00 0.00 0.00 60 1027.5
20260509051527 63 231 5.2 10.4 0.00 0.00 0.00 60 1027.5
20260509045727 62 235 3.5 7.0 0.00 0.00 0.00 61 1027.6